KE5JQA-1 Weather Reports


time (UTC)temp
F
wind
direction
speed
knots
gust
knots
rain 1hr
in
rain 24hr
in
rain mn
in
humidity
%
barometer
mb
20260509174017 86 225 1.7 4.3 0.00 0.11 0.11 13 1012.0
20260509173517 86 225 1.7 6.1 0.00 0.11 0.11 14 1012.0
20260509173018 85 248 1.7 6.1 0.00 0.11 0.11 15 1012.0
20260509172537 84 248 1.7 6.1 0.00 0.11 0.11 15 1012.1
20260509172017 84 225 2.6 7.0 0.00 0.11 0.11 13 1012.0
20260509171537 85 293 1.7 4.3 0.00 0.11 0.11 15 1012.0
20260509171037 85 315 0.9 3.5 0.00 0.11 0.11 15 1012.1
20260509170517 84 293 1.7 4.3 0.00 0.11 0.11 15 1012.1
20260509170017 83 248 1.7 7.0 0.00 0.11 0.11 16 1012.1
20260509165517 84 248 0.9 2.6 0.00 0.11 0.11 13 1012.3
20260509165017 83 0.0 0.9 0.00 0.11 0.11 17 1012.4
20260509164537 82 270 1.7 5.2 0.00 0.11 0.11 17 1012.4
20260509164017 81 248 1.7 6.1 0.00 0.11 0.11 18 1012.7
20260509163517 81 225 1.7 7.0 0.00 0.11 0.11 17 1012.7
20260509163017 80 225 0.9 4.3 0.00 0.11 0.11 24 1012.7
20260509162517 79 225 1.7 5.2 0.00 0.11 0.11 24 1012.7
20260509162017 78 225 1.7 6.1 0.00 0.11 0.11 26 1012.7
20260509161557 77 0.0 1.7 0.00 0.11 0.11 32 1012.7
20260509161017 77 0.0 1.7 0.00 0.11 0.11 31 1012.7
20260509160517 76 225 0.9 2.6 0.00 0.11 0.11 32 1012.8
20260509160017 76 248 0.9 3.5 0.00 0.11 0.11 33 1012.8
20260509155517 76 0.0 0.9 0.00 0.11 0.11 35 1012.8
20260509155017 75 90 0.9 1.7 0.00 0.11 0.11 35 1012.9
20260509154517 75 0.0 0.9 0.00 0.11 0.11 36 1012.8
20260509154017 75 68 0.9 1.7 0.00 0.11 0.11 36 1012.6
20260509153537 75 68 0.9 1.7 0.00 0.11 0.11 36 1012.7
20260509153017 74 0.0 2.6 0.00 0.11 0.11 36 1012.6
20260509152517 74 68 1.7 2.6 0.00 0.11 0.11 36 1012.5
20260509152017 74 68 1.7 2.6 0.00 0.11 0.11 36 1012.4
20260509151557 74 68 0.9 1.7 0.00 0.11 0.11 36 1012.4
20260509151017 74 68 1.7 1.7 0.00 0.11 0.11 36 1012.4
20260509150517 74 225 0.9 2.6 0.00 0.11 0.11 36 1012.3
20260509150017 74 0.0 1.7 0.00 0.11 0.11 36 1012.3
20260509145517 74 248 0.9 1.7 0.00 0.11 0.11 36 1012.1
20260509145017 74 0.0 0.9 0.00 0.11 0.11 37 1012.2
20260509144517 74 248 0.9 1.7 0.00 0.11 0.11 37 1012.2
20260509144017 74 0.0 1.7 0.00 0.11 0.11 37 1012.2
20260509143537 74 0.0 0.0 0.00 0.11 0.11 37 1012.2
20260509143017 74 0.0 0.0 0.00 0.11 0.11 37 1012.2
20260509142537 73 0.0 0.0 0.00 0.11 0.11 37 1012.2
20260509142037 73 0.0 0.9 0.00 0.11 0.11 37 1012.1
20260509141517 73 0.0 0.0 0.00 0.11 0.11 37 1012.2
20260509141017 73 0.0 0.0 0.00 0.11 0.11 37 1012.3
20260509140517 73 0.0 0.0 0.00 0.11 0.11 37 1012.4
20260509140017 73 0.0 0.0 0.00 0.11 0.11 37 1012.4
20260509135517 73 0.0 0.9 0.00 0.11 0.11 37 1012.4
20260509135017 73 0.0 0.9 0.00 0.11 0.11 37 1012.4
20260509134517 72 0.0 0.9 0.00 0.11 0.11 37 1012.3
20260509134037 72 0.0 0.9 0.00 0.11 0.11 37 1012.1
20260509133557 72 0.0 0.9 0.00 0.11 0.11 37 1011.9
20260509133018 72 0.0 0.9 0.00 0.11 0.11 37 1011.8
20260509132538 72 0.0 1.7 0.00 0.11 0.11 37 1011.8
20260509132017 72 0.0 1.7 0.00 0.11 0.11 37 1011.7
20260509131518 72 225 0.9 1.7 0.00 0.11 0.11 37 1011.6
20260509131017 72 0.0 1.7 0.00 0.11 0.11 37 1011.2
20260509130538 72 0.0 0.9 0.00 0.11 0.11 37 1010.9
20260509130018 72 0.0 0.9 0.00 0.11 0.11 37 1010.6
20260509125517 72 225 0.9 3.5 0.00 0.11 0.11 37 1010.8
20260509125018 72 0.0 2.6 0.00 0.11 0.11 37 1010.8
20260509124518 72 225 0.9 3.5 0.00 0.11 0.11 37 1010.9
20260509124017 72 0.0 2.6 0.00 0.11 0.11 37 1010.7
20260509123518 72 225 0.9 4.3 0.00 0.11 0.11 37 1010.7
20260509123018 72 225 0.9 3.5 0.00 0.11 0.11 37 1010.6
20260509122518 72 225 0.9 3.5 0.00 0.11 0.11 37 1010.6
20260509122017 72 225 0.9 5.2 0.00 0.11 0.11 37 1010.8
20260509121537 72 225 0.9 2.6 0.00 0.11 0.11 37 1011.0
20260509121037 72 225 0.9 2.6 0.00 0.11 0.11 37 1011.1
20260509120517 72 225 0.9 3.5 0.00 0.11 0.11 37 1011.0
20260509120017 72 225 0.9 3.5 0.00 0.11 0.11 37 1010.9
20260509115517 72 225 0.9 8.7 0.00 0.11 0.11 37 1010.7
20260509115037 72 225 1.7 8.7 0.00 0.11 0.11 37 1010.6
20260509114537 72 225 0.9 6.1 0.00 0.11 0.11 37 1010.7
20260509114017 71 135 0.9 2.6 0.00 0.11 0.11 37 1010.8
20260509113517 71 203 0.9 3.5 0.00 0.11 0.11 37 1011.3
20260509113018 71 0.0 3.5 0.00 0.11 0.11 37 1011.5
20260509112518 71 0.0 4.3 0.00 0.11 0.11 37 1011.4
20260509112017 71 225 0.9 4.3 0.00 0.11 0.11 37 1011.4
20260509111556 72 0.0 2.6 0.00 0.11 0.11 36 1011.4
20260509111016 72 0.0 1.7 0.00 0.11 0.11 37 1011.5
20260509110516 72 0.0 0.9 0.00 0.11 0.11 36 1011.6
20260509110037 72 0.0 1.7 0.00 0.11 0.11 36 1011.9
20260509105516 72 0.0 0.9 0.00 0.11 0.11 36 1012.0
20260509105117 72 0.0 0.0 0.00 0.11 0.11 36 1012.0
20260509104516 72 0.0 0.0 0.00 0.11 0.11 36 1012.0
20260509104017 72 0.0 0.0 0.02 0.11 0.11 36 1011.9
20260509103517 72 0.0 0.0 0.08 0.11 0.11 36 1011.8
20260509103017 72 0.0 0.0 0.11 0.11 0.11 36 1011.9
20260509102537 72 0.0 0.0 0.11 0.11 0.11 36 1011.9
20260509102036 72 0.0 0.0 0.11 0.11 0.11 36 1011.7
20260509101517 72 0.0 1.7 0.11 0.11 0.11 36 1011.5
20260509101016 72 0.0 0.9 0.11 0.11 0.11 36 1011.5
20260509100516 72 0.0 0.9 0.11 0.11 0.11 36 1011.3
20260509100016 72 0.0 0.9 0.11 0.11 0.11 36 1011.3
20260509095516 72 0.0 0.9 0.11 0.11 0.11 36 1011.5
20260509095016 71 0.0 0.9 0.11 0.11 0.11 36 1011.7
20260509094516 71 0.0 0.9 0.11 0.11 0.11 36 1011.7
20260509094016 71 225 0.9 1.7 0.09 0.09 0.09 35 1011.6
20260509093516 71 0.0 1.7 0.03 0.03 0.03 35 1011.7
20260509093036 71 0.0 0.0 0.00 0.00 0.00 35 1011.9
20260509092517 71 0.0 0.0 0.00 0.00 0.00 35 1011.7
20260509092016 72 0.0 0.0 0.00 0.00 0.00 35 1012.0
20260509091516 72 0.0 0.0 0.00 0.00 0.00 35 1012.0
20260509091016 72 0.0 0.0 0.00 0.00 0.00 35 1012.2
20260509090516 72 0.0 0.0 0.00 0.00 0.00 35 1012.3
20260509090017 72 0.0 0.0 0.00 0.00 0.00 35 1012.3
20260509085516 72 0.0 0.0 0.00 0.00 0.00 34 1012.3
20260509085016 72 0.0 0.0 0.00 0.00 0.00 34 1012.1
20260509084516 72 0.0 0.0 0.00 0.00 0.00 34 1012.1
20260509084016 72 0.0 0.0 0.00 0.00 0.00 34 1012.2
20260509083516 72 0.0 0.0 0.00 0.00 0.00 34 1012.2
20260509083017 72 0.0 0.0 0.00 0.00 0.00 34 1012.1
20260509082516 72 0.0 0.0 0.00 0.00 0.00 34 1012.1
20260509082016 72 0.0 0.0 0.00 0.00 0.00 33 1012.1
20260509081516 72 0.0 0.0 0.00 0.00 0.00 33 1012.2
20260509081016 72 0.0 0.0 0.00 0.00 0.00 33 1012.3
20260509080516 72 0.0 0.0 0.00 0.00 0.00 33 1012.4
20260509080016 72 0.0 0.9 0.00 0.00 0.00 32 1012.2
20260509075516 72 0.0 0.9 0.00 0.00 0.00 32 1012.0
20260509075016 72 0.0 0.9 0.00 0.00 0.00 32 1011.8
20260509074516 71 0.0 0.0 0.00 0.00 0.00 32 1012.1
20260509074016 71 0.0 0.0 0.00 0.00 0.00 31 1012.2
20260509073516 72 0.0 0.0 0.00 0.00 0.00 31 1012.3
20260509073016 72 0.0 0.0 0.00 0.00 0.00 31 1012.5
20260509072556 72 0.0 0.0 0.00 0.00 0.00 31 1012.7
20260509072036 72 0.0 0.0 0.00 0.00 0.00 31 1012.7
20260509071516 72 0.0 0.0 0.00 0.00 0.00 31 1012.7
20260509071016 72 0.0 0.0 0.00 0.00 0.00 31 1012.7
20260509070516 72 0.0 0.0 0.00 0.00 0.00 31 1012.6
20260509070016 72 0.0 0.0 0.00 0.00 0.00 31 1012.6
20260509065536 72 0.0 0.0 0.00 0.00 0.00 31 1012.5
20260509065016 72 0.0 0.0 0.00 0.00 0.00 31 1012.6
20260509064516 72 0.0 0.0 0.00 0.00 0.00 31 1012.4
20260509064017 72 0.0 0.0 0.00 0.00 0.00 31 1012.2
20260509063537 72 0.0 0.9 0.00 0.00 0.00 31 1012.2
20260509063016 72 0.0 0.9 0.00 0.00 0.00 31 1012.1
20260509062516 72 0.0 0.9 0.00 0.00 0.00 32 1012.1
20260509062016 71 0.0 0.9 0.00 0.00 0.00 32 1012.1
20260509061516 71 0.0 0.0 0.00 0.00 0.00 32 1012.0
20260509061016 71 0.0 0.9 0.00 0.00 0.00 32 1011.6
20260509060536 71 0.0 0.9 0.00 0.00 0.00 32 1011.7
20260509060016 71 0.0 0.9 0.00 0.00 0.00 32 1011.7
20260509055516 71 0.0 2.6 0.00 0.00 0.00 32 1011.5
20260509055016 71 0.0 1.7 0.00 0.00 0.00 32 1011.4
20260509054516 71 225 0.9 3.5 0.00 0.00 0.00 32 1011.2
20260509054016 71 0.0 2.6 0.00 0.00 0.00 32 1011.2
20260509053516 71 225 0.9 3.5 0.00 0.00 0.00 32 1011.4
20260509053016 71 0.0 1.7 0.00 0.00 0.00 31 1011.5
20260509052516 71 0.0 3.5 0.00 0.00 0.00 31 1011.6
20260509052016 71 0.0 3.5 0.00 0.00 0.00 31 1011.8
20260509051518 71 0.0 0.9 0.00 0.00 0.00 31 1011.6
20260509051017 71 0.0 0.9 0.00 0.00 0.00 31 1011.6
20260509050517 70 0.0 0.9 0.00 0.00 0.00 32 1011.7
20260509050016 70 0.0 0.0 0.00 0.00 0.00 32 1011.9
20260509045517 71 0.0 0.9 0.00 0.00 0.00 32 1011.9
20260509045016 70 0.0 0.9 0.00 0.00 0.00 32 1011.9
20260509044517 71 0.0 0.9 0.00 0.00 0.00 32 1011.8
20260509044016 71 0.0 0.9 0.00 0.00 0.00 33 1011.8
20260509043556 71 0.0 0.9 0.00 0.00 0.00 33 1011.8
20260509043016 71 0.0 0.9 0.00 0.00 0.00 33 1011.7
20260509042516 71 0.0 0.9 0.00 0.00 0.00 34 1011.5
20260509042016 71 0.0 0.9 0.00 0.00 0.00 35 1011.5
20260509041516 71 0.0 0.0 0.00 0.00 0.00 38 1011.4
20260509041016 71 0.0 0.0 0.00 0.00 0.00 41 1011.4
20260509040516 71 0.0 0.0 0.00 0.00 0.00 41 1011.3
20260509040016 71 0.0 0.0 0.00 0.00 0.00 43 1011.3
20260509035516 71 0.0 0.0 0.00 0.00 0.00 44 1011.2
20260509035017 72 0.0 0.0 0.00 0.00 0.00 44 1011.2
20260509034516 72 0.0 0.0 0.00 0.00 0.00 45 1011.0
20260509034036 72 0.0 0.0 0.00 0.00 0.00 45 1011.0
20260509033516 72 0.0 0.0 0.00 0.00 0.00 45 1011.0
20260509033016 72 0.0 0.0 0.00 0.00 0.00 46 1011.2
20260509032516 72 0.0 0.0 0.00 0.00 0.00 46 1011.1
20260509032016 72 0.0 0.9 0.00 0.00 0.00 47 1011.0
20260509031516 73 0.0 0.9 0.00 0.00 0.00 48 1011.1
20260509031016 73 0.0 0.9 0.00 0.00 0.00 48 1011.0
20260509030516 73 0.0 0.9 0.00 0.00 0.00 49 1010.9
20260509030016 73 0.0 2.6 0.00 0.00 0.00 49 1010.8
20260509025516 73 0.0 2.6 0.00 0.00 0.00 50 1010.8
20260509025017 73 0.0 0.9 0.00 0.00 0.00 50 1010.7
20260509024556 73 0.0 1.7 0.00 0.00 0.00 51 1010.7
20260509024016 73 0.0 1.7 0.00 0.00 0.00 51 1010.6
20260509023517 73 0.0 1.7 0.00 0.00 0.00 51 1010.6
20260509023016 73 0.0 0.9 0.00 0.00 0.00 51 1010.6
20260509022516 73 90 0.9 1.7 0.00 0.00 0.00 51 1010.6
20260509022016 74 0.0 0.9 0.00 0.00 0.00 51 1010.6
20260509021516 74 0.0 0.9 0.00 0.00 0.00 51 1010.6
20260509021017 74 0.0 0.9 0.00 0.00 0.00 51 1010.5
20260509020517 74 0.0 1.7 0.00 0.00 0.00 52 1010.5
20260509020017 74 0.0 2.6 0.00 0.00 0.00 52 1010.5
20260509015536 74 0.0 2.6 0.00 0.00 0.00 53 1010.3
20260509015016 74 0.0 0.9 0.00 0.00 0.00 53 1010.4
20260509014516 74 135 0.9 2.6 0.00 0.00 0.00 54 1010.3
20260509014016 74 23 0.9 3.5 0.00 0.00 0.00 54 1010.3
20260509013536 75 135 0.9 1.7 0.00 0.00 0.00 54 1010.2
20260509013016 75 0.0 1.7 0.00 0.00 0.00 54 1010.3
20260509012516 75 0.0 1.7 0.00 0.00 0.00 54 1010.4
20260509012016 75 90 0.9 2.6 0.00 0.00 0.00 54 1010.4
20260509011516 75 135 0.9 3.5 0.00 0.00 0.00 55 1010.5
20260509011016 75 0.0 1.7 0.00 0.00 0.00 55 1010.6
20260509010516 75 0.0 0.9 0.00 0.00 0.00 55 1010.5
20260509010016 75 0.0 0.9 0.00 0.00 0.00 55 1010.6
20260509005517 76 0.0 0.9 0.00 0.00 0.00 55 1010.5
20260509005016 76 0.0 0.9 0.00 0.00 0.00 55 1010.5
20260509004536 76 0.0 1.7 0.00 0.00 0.00 55 1010.4
20260509004016 76 0.0 0.9 0.00 0.00 0.00 55 1010.4
20260509003516 76 0.0 1.7 0.00 0.00 0.00 54 1010.3
20260509003016 77 0.0 1.7 0.00 0.00 0.00 54 1010.2
20260509002516 77 0.0 0.9 0.00 0.00 0.00 54 1010.2
20260509002016 77 90 0.9 2.6 0.00 0.00 0.00 53 1010.3
20260509001516 77 68 0.9 3.5 0.00 0.00 0.00 53 1010.2
20260509001016 78 68 0.9 2.6 0.00 0.00 0.00 52 1010.2
20260509000516 78 0.0 1.7 0.00 0.00 0.00 52 1010.3
20260509000016 78 0.0 1.7 0.00 0.00 0.00 52 1010.4
20260508235536 78 135 0.9 2.6 0.00 0.00 0.00 52 1010.4
20260508235016 78 135 0.9 1.7 0.00 0.00 0.00 53 1010.3
20260508234515 77 135 0.9 3.5 0.00 0.00 0.00 53 1010.3
20260508234016 77 225 0.9 2.6 0.00 0.00 0.00 53 1010.3
20260508233516 77 0.0 1.7 0.00 0.00 0.00 52 1010.4
20260508233016 77 113 0.9 2.6 0.00 0.00 0.00 53 1010.4
20260508232516 78 68 0.9 2.6 0.00 0.00 0.00 52 1010.4
20260508232016 78 68 0.9 4.3 0.00 0.00 0.00 51 1010.5
20260508231516 78 135 0.9 2.6 0.00 0.00 0.00 52 1010.5
20260508231016 78 68 1.7 5.2 0.00 0.00 0.00 52 1010.5
20260508230516 78 68 1.7 2.6 0.00 0.00 0.00 51 1010.5
20260508230016 78 135 1.7 3.5 0.00 0.00 0.00 52 1010.5
20260508225516 77 68 1.7 3.5 0.00 0.00 0.00 52 1010.5
20260508225036 77 68 3.5 5.2 0.00 0.00 0.00 51 1010.4
20260508224515 77 68 4.3 6.1 0.00 0.00 0.00 52 1010.6
20260508224015 77 68 4.3 7.0 0.00 0.00 0.00 52 1010.7
20260508223516 77 68 2.6 5.2 0.00 0.00 0.00 52 1010.8
20260508223016 77 45 2.6 3.5 0.00 0.00 0.00 52 1011.0
20260508222515 77 45 1.7 2.6 0.00 0.00 0.00 52 1011.0
20260508222036 77 45 0.9 1.7 0.00 0.00 0.00 51 1011.1
20260508221516 77 0.0 0.9 0.00 0.00 0.00 51 1011.2
20260508221016 77 0.0 0.9 0.00 0.00 0.00 51 1011.2
20260508220516 77 0.0 0.9 0.00 0.00 0.00 51 1011.3
20260508220015 78 0.0 0.9 0.00 0.00 0.00 50 1011.3
20260508215516 78 0.0 1.7 0.00 0.00 0.00 50 1011.3
20260508215018 78 68 0.9 1.7 0.00 0.00 0.00 50 1011.2
20260508214519 78 68 0.9 1.7 0.00 0.00 0.00 49 1011.3
20260508214018 78 45 0.9 1.7 0.00 0.00 0.00 49 1011.3
20260508213517 78 45 0.9 1.7 0.00 0.00 0.00 50 1011.3
20260508213038 78 0.0 1.7 0.00 0.00 0.00 50 1011.2
20260508212538 77 45 0.9 2.6 0.00 0.00 0.00 51 1011.3
20260508212018 77 0.0 1.7 0.00 0.00 0.00 50 1011.5
20260508211518 77 0.0 0.9 0.00 0.00 0.00 51 1011.4
20260508211018 77 0.0 0.9 0.00 0.00 0.00 51 1011.6
20260508210518 77 45 1.7 4.3 0.00 0.00 0.00 50 1011.6
20260508210018 78 45 0.9 4.3 0.00 0.00 0.00 49 1011.7
20260508205518 78 203 0.9 1.7 0.00 0.00 0.00 48 1011.6
20260508205018 77 0.0 1.7 0.00 0.00 0.00 49 1011.7
20260508204517 77 225 0.9 2.6 0.00 0.00 0.00 49 1011.6
20260508204038 76 68 1.7 4.3 0.00 0.00 0.00 49 1011.7
20260508203518 76 68 1.7 5.2 0.00 0.00 0.00 50 1011.9
20260508203017 76 68 1.7 3.5 0.00 0.00 0.00 50 1011.8
20260508202518 76 68 0.9 3.5 0.00 0.00 0.00 50 1011.9
20260508202017 75 45 1.7 3.5 0.00 0.00 0.00 51 1011.8
20260508201517 75 45 1.7 2.6 0.00 0.00 0.00 51 1011.9
20260508201018 74 45 1.7 2.6 0.00 0.00 0.00 50 1011.9
20260508200519 74 45 1.7 2.6 0.00 0.00 0.00 51 1012.0
20260508200017 74 45 1.7 2.6 0.00 0.00 0.00 51 1012.1
20260508195517 73 45 2.6 3.5 0.00 0.00 0.00 51 1012.2
20260508195017 73 45 3.5 4.3 0.00 0.00 0.00 50 1012.3
20260508194517 74 45 2.6 4.3 0.00 0.00 0.00 50 1012.4
20260508194018 74 45 1.7 2.6 0.00 0.00 0.00 50 1012.3
20260508193517 74 45 2.6 3.5 0.00 0.00 0.00 50 1012.5
20260508193018 74 45 0.9 2.6 0.00 0.00 0.00 50 1012.5
20260508192517 74 248 0.9 0.9 0.00 0.00 0.00 49 1012.7
20260508192017 74 248 0.9 0.9 0.00 0.00 0.00 49 1012.8
20260508191517 73 0.0 1.7 0.00 0.00 0.00 49 1012.9
20260508191017 73 0.0 0.9 0.00 0.00 0.00 49 1013.2
20260508190517 73 0.0 0.9 0.00 0.00 0.00 49 1013.3
20260508190037 73 0.0 0.9 0.00 0.00 0.00 49 1013.3
20260508185517 72 0.0 0.9 0.00 0.00 0.00 49 1013.4
20260508185017 72 135 0.9 1.7 0.00 0.00 0.00 49 1013.3
20260508184517 72 23 1.7 3.5 0.00 0.00 0.00 48 1013.1
20260508184017 72 23 0.9 2.6 0.00 0.00 0.00 48 1013.2
20260508183558 71 23 1.7 3.5 0.00 0.00 0.00 49 1013.1
20260508183017 70 23 1.7 3.5 0.00 0.00 0.00 48 1013.1
20260508182517 70 68 2.6 5.2 0.00 0.00 0.00 48 1013.2
20260508182037 70 45 1.7 3.5 0.00 0.00 0.00 49 1013.3
20260508181517 69 45 1.7 4.3 0.00 0.00 0.00 50 1013.3
20260508181017 68 68 2.6 4.3 0.00 0.00 0.00 50 1013.6
20260508180538 68 68 2.6 4.3 0.00 0.00 0.00 51 1013.6
20260508180017 67 68 3.5 6.1 0.00 0.00 0.00 51 1013.8
20260508175517 67 45 2.6 4.3 0.00 0.00 0.00 51 1013.8
20260508175017 67 45 1.7 3.5 0.00 0.00 0.00 51 1014.0
20260508174537 67 45 1.7 4.3 0.00 0.00 0.00 51 1014.1